Time,TemperatureF,DewpointF,PressureIn,WindDirection,WindDirectionDegrees,WindSpeedMPH,WindSpeedGustMPH,Humidity,HourlyPrecipIn,Conditions,Clouds,dailyrainin,SolarRadiationWatts/m^2,SoftwareType,DateUTC
2013-02-09 00:12:00,75.7,71.0,29.99,ENE,78,2.0,5.0,84,0.00,,,0.00,0,weatherlink.com 1.10,2013-02-09 04:12:00,
2013-02-09 00:27:00,75.6,71.0,29.99,SE,136,4.0,8.0,84,0.00,,,0.00,0,weatherlink.com 1.10,2013-02-09 04:27:00,
2013-02-09 00:42:00,75.5,70.0,29.99,SE,131,3.0,5.0,84,0.00,,,0.00,0,weatherlink.com 1.10,2013-02-09 04:42:00,
2013-02-09 00:57:00,75.6,71.0,29.98,SE,126,5.0,8.0,84,0.00,,,0.00,0,weatherlink.com 1.10,2013-02-09 04:57:00,
2013-02-09 01:12:00,75.5,70.0,29.98,ESE,113,5.0,7.0,84,0.00,,,0.00,0,weatherlink.com 1.10,2013-02-09 05:12:00,
2013-02-09 01:27:00,75.3,71.0,29.98,ESE,116,2.0,4.0,85,0.00,,,0.00,0,weatherlink.com 1.10,2013-02-09 05:27:00,
2013-02-09 01:42:00,75.1,70.0,29.97,ESE,117,0.0,7.0,85,0.00,,,0.00,0,weatherlink.com 1.10,2013-02-09 05:42:00,
2013-02-09 01:57:00,75.0,70.0,29.97,ESE,111,3.0,5.0,85,0.00,,,0.00,0,weatherlink.com 1.10,2013-02-09 05:57:00,
2013-02-09 02:12:00,75.0,70.0,29.96,East,95,1.0,7.0,85,0.00,,,0.00,0,weatherlink.com 1.10,2013-02-09 06:12:00,
2013-02-09 02:27:00,75.0,70.0,29.96,ENE,76,1.0,7.0,85,0.00,,,0.00,0,weatherlink.com 1.10,2013-02-09 06:27:00,
2013-02-09 02:42:00,74.9,70.0,29.95,ENE,75,3.0,7.0,84,0.00,,,0.00,0,weatherlink.com 1.10,2013-02-09 06:42:00,
2013-02-09 02:58:00,74.9,70.0,29.95,ENE,78,0.0,8.0,84,0.00,,,0.00,0,weatherlink.com 1.10,2013-02-09 06:58:00,
2013-02-09 03:12:00,74.9,70.0,29.94,East,92,2.0,7.0,84,0.00,,,0.00,0,weatherlink.com 1.10,2013-02-09 07:12:00,
2013-02-09 03:27:00,74.7,70.0,29.94,East,92,2.0,5.0,85,0.00,,,0.00,0,weatherlink.com 1.10,2013-02-09 07:27:00,
2013-02-09 03:42:00,74.4,70.0,29.94,ESE,117,4.0,5.0,85,0.00,,,0.00,0,weatherlink.com 1.10,2013-02-09 07:42:00,
2013-02-09 03:57:00,74.3,70.0,29.94,ESE,121,1.0,6.0,85,0.00,,,0.00,0,weatherlink.com 1.10,2013-02-09 07:57:00,
2013-02-09 04:12:00,74.3,70.0,29.94,ENE,76,0.0,7.0,85,0.00,,,0.00,0,weatherlink.com 1.10,2013-02-09 08:12:00,
2013-02-09 04:27:00,74.2,70.0,29.94,ESE,123,2.0,7.0,85,0.00,,,0.00,0,weatherlink.com 1.10,2013-02-09 08:27:00,
2013-02-09 04:42:00,74.1,69.0,29.95,ESE,117,1.0,5.0,85,0.00,,,0.00,0,weatherlink.com 1.10,2013-02-09 08:42:00,
2013-02-09 04:58:00,74.0,69.0,29.95,ESE,110,2.0,4.0,85,0.00,,,0.00,0,weatherlink.com 1.10,2013-02-09 08:58:00,
2013-02-09 05:12:00,73.9,70.0,29.95,ESE,110,0.0,1.0,86,0.00,,,0.00,0,weatherlink.com 1.10,2013-02-09 09:12:00,
2013-02-09 05:27:00,73.5,70.0,29.95,ESE,110,0.0,1.0,87,0.00,,,0.00,0,weatherlink.com 1.10,2013-02-09 09:27:00,
2013-02-09 05:42:00,73.1,69.0,29.96,ESE,110,0.0,1.0,87,0.00,,,0.00,0,weatherlink.com 1.10,2013-02-09 09:42:00,
2013-02-09 05:57:00,72.8,69.0,29.96,ESE,110,1.0,2.0,88,0.00,,,0.00,0,weatherlink.com 1.10,2013-02-09 09:57:00,
2013-02-09 06:27:00,72.4,69.0,29.97,ESE,110,0.0,1.0,89,0.00,,,0.00,0,weatherlink.com 1.10,2013-02-09 10:27:00,
2013-02-09 06:42:00,72.2,69.0,29.98,ESE,110,0.0,2.0,89,0.00,,,0.00,0,weatherlink.com 1.10,2013-02-09 10:42:00,
2013-02-09 06:58:00,72.0,69.0,29.99,ESE,110,0.0,1.0,89,0.00,,,0.00,7,weatherlink.com 1.10,2013-02-09 10:58:00,
2013-02-09 07:13:00,71.9,69.0,29.99,ESE,110,0.0,1.0,90,0.00,,,0.00,33,weatherlink.com 1.10,2013-02-09 11:13:00,
2013-02-09 07:28:00,72.2,69.0,30.00,ESE,110,0.0,1.0,90,0.00,,,0.00,72,weatherlink.com 1.10,2013-02-09 11:28:00,
2013-02-09 07:43:00,72.9,70.0,30.00,ESE,110,1.0,1.0,89,0.00,,,0.00,127,weatherlink.com 1.10,2013-02-09 11:43:00,
2013-02-09 07:58:00,73.7,70.0,30.00,SE,133,1.0,5.0,87,0.00,,,0.00,188,weatherlink.com 1.10,2013-02-09 11:58:00,
2013-02-09 08:13:00,74.4,70.0,30.00,SSE,148,1.0,5.0,85,0.00,,,0.00,234,weatherlink.com 1.10,2013-02-09 12:13:00,
2013-02-09 08:28:00,75.6,71.0,30.01,East,94,2.0,5.0,84,0.00,,,0.00,294,weatherlink.com 1.10,2013-02-09 12:28:00,
2013-02-09 08:43:00,76.5,70.0,30.02,East,87,7.0,9.0,79,0.00,,,0.00,54,weatherlink.com 1.10,2013-02-09 12:43:00,
2013-02-09 08:58:00,77.3,69.0,30.02,East,101,6.0,10.0,76,0.00,,,0.00,406,weatherlink.com 1.10,2013-02-09 12:58:00,
2013-02-09 09:13:00,78.6,69.0,30.02,East,99,5.0,14.0,73,0.00,,,0.00,454,weatherlink.com 1.10,2013-02-09 13:13:00,
2013-02-09 09:28:00,79.9,70.0,30.02,ESE,107,3.0,9.0,71,0.00,,,0.00,513,weatherlink.com 1.10,2013-02-09 13:28:00,
2013-02-09 09:44:00,80.7,70.0,30.03,ENE,78,5.0,11.0,69,0.00,,,0.00,582,weatherlink.com 1.10,2013-02-09 13:44:00,
2013-02-09 10:14:00,81.6,70.0,30.03,ENE,64,2.0,10.0,68,0.00,,,0.00,652,weatherlink.com 1.10,2013-02-09 14:14:00,
2013-02-09 10:28:00,82.5,70.0,30.03,ENE,62,7.0,10.0,66,0.00,,,0.00,705,weatherlink.com 1.10,2013-02-09 14:28:00,
2013-02-09 10:43:00,82.3,70.0,30.02,ENE,60,7.0,13.0,66,0.00,,,0.00,329,weatherlink.com 1.10,2013-02-09 14:43:00,
2013-02-09 10:58:00,82.0,70.0,30.02,ENE,60,5.0,12.0,66,0.00,,,0.00,79,weatherlink.com 1.10,2013-02-09 14:58:00,
2013-02-09 11:29:00,82.5,70.0,30.01,ENE,61,10.0,15.0,66,0.00,,,0.00,88,weatherlink.com 1.10,2013-02-09 15:29:00,
2013-02-09 11:44:00,82.7,71.0,30.01,East,96,8.0,17.0,67,0.00,,,0.00,809,weatherlink.com 1.10,2013-02-09 15:44:00,
2013-02-09 11:59:00,83.3,70.0,30.00,NE,52,9.0,16.0,65,0.00,,,0.00,828,weatherlink.com 1.10,2013-02-09 15:59:00,
2013-02-09 12:14:00,83.8,71.0,30.00,ENE,78,11.0,17.0,65,0.00,,,0.00,837,weatherlink.com 1.10,2013-02-09 16:14:00,
2013-02-09 12:29:00,83.5,71.0,29.99,ENE,59,14.0,17.0,66,0.00,,,0.00,838,weatherlink.com 1.10,2013-02-09 16:29:00,
2013-02-09 12:44:00,84.0,71.0,29.98,East,101,9.0,15.0,64,0.00,,,0.00,840,weatherlink.com 1.10,2013-02-09 16:44:00,
2013-02-09 12:59:00,84.4,71.0,29.98,NE,44,10.0,19.0,65,0.00,,,0.00,835,weatherlink.com 1.10,2013-02-09 16:59:00,
2013-02-09 13:14:00,84.5,71.0,29.98,NE,44,4.0,14.0,64,0.00,,,0.00,830,weatherlink.com 1.10,2013-02-09 17:14:00,
2013-02-09 13:29:00,84.3,71.0,29.97,ENE,78,9.0,15.0,65,0.00,,,0.00,814,weatherlink.com 1.10,2013-02-09 17:29:00,
2013-02-09 13:44:00,84.4,72.0,29.96,ENE,65,8.0,13.0,66,0.00,,,0.00,793,weatherlink.com 1.10,2013-02-09 17:44:00,
2013-02-09 13:59:00,84.6,72.0,29.96,ENE,76,7.0,15.0,65,0.00,,,0.00,773,weatherlink.com 1.10,2013-02-09 17:59:00,
2013-02-09 14:14:00,84.1,72.0,29.95,East,87,8.0,13.0,66,0.00,,,0.00,749,weatherlink.com 1.10,2013-02-09 18:14:00,
2013-02-09 14:29:00,84.4,72.0,29.95,NE,41,7.0,13.0,66,0.00,,,0.00,714,weatherlink.com 1.10,2013-02-09 18:29:00,
2013-02-09 14:44:00,84.2,72.0,29.95,ENE,66,11.0,15.0,67,0.00,,,0.00,684,weatherlink.com 1.10,2013-02-09 18:44:00,
2013-02-09 14:59:00,83.8,72.0,29.95,NE,46,10.0,14.0,68,0.00,,,0.00,640,weatherlink.com 1.10,2013-02-09 18:59:00,
2013-02-09 15:14:00,83.2,72.0,29.94,ENE,57,4.0,18.0,68,0.00,,,0.00,605,weatherlink.com 1.10,2013-02-09 19:14:00,
2013-02-09 15:29:00,82.8,72.0,29.94,East,86,7.0,16.0,69,0.00,,,0.00,552,weatherlink.com 1.10,2013-02-09 19:29:00,
2013-02-09 15:44:00,82.9,72.0,29.94,NE,51,8.0,17.0,69,0.00,,,0.00,508,weatherlink.com 1.10,2013-02-09 19:44:00,
2013-02-09 15:59:00,82.8,72.0,29.94,ENE,61,10.0,15.0,70,0.00,,,0.00,241,weatherlink.com 1.10,2013-02-09 19:59:00,
2013-02-09 16:14:00,82.1,72.0,29.94,ENE,77,7.0,16.0,71,0.00,,,0.00,399,weatherlink.com 1.10,2013-02-09 20:14:00,
2013-02-09 16:29:00,81.6,72.0,29.94,ENE,60,5.0,16.0,73,0.00,,,0.00,348,weatherlink.com 1.10,2013-02-09 20:29:00,
2013-02-09 16:44:00,80.9,71.0,29.94,ENE,67,14.0,17.0,72,0.00,,,0.00,295,weatherlink.com 1.10,2013-02-09 20:44:00,
2013-02-09 16:59:00,80.4,71.0,29.95,East,95,16.0,18.0,74,0.00,,,0.00,53,weatherlink.com 1.10,2013-02-09 20:59:00,
2013-02-09 17:14:00,79.8,71.0,29.95,ENE,67,13.0,17.0,74,0.00,,,0.00,51,weatherlink.com 1.10,2013-02-09 21:14:00,
2013-02-09 17:29:00,79.4,70.0,29.95,East,84,10.0,16.0,74,0.00,,,0.00,49,weatherlink.com 1.10,2013-02-09 21:29:00,
2013-02-09 17:44:00,79.2,71.0,29.96,East,83,7.0,15.0,75,0.00,,,0.00,32,weatherlink.com 1.10,2013-02-09 21:44:00,
2013-02-09 17:59:00,78.9,71.0,29.96,East,88,8.0,16.0,76,0.00,,,0.00,21,weatherlink.com 1.10,2013-02-09 21:59:00,
2013-02-09 18:29:00,78.2,71.0,29.96,ENE,59,5.0,16.0,78,0.00,,,0.00,0,weatherlink.com 1.10,2013-02-09 22:29:00,
2013-02-09 18:44:00,77.9,71.0,29.97,ENE,71,10.0,14.0,78,0.00,,,0.00,0,weatherlink.com 1.10,2013-02-09 22:44:00,
2013-02-09 18:59:00,77.8,70.0,29.98,NE,40,9.0,14.0,78,0.00,,,0.00,0,weatherlink.com 1.10,2013-02-09 22:59:00,
2013-02-09 19:14:00,77.6,70.0,29.98,East,92,10.0,18.0,78,0.00,,,0.00,0,weatherlink.com 1.10,2013-02-09 23:14:00,
2013-02-09 19:29:00,77.7,70.0,29.98,East,87,8.0,13.0,78,0.00,,,0.00,0,weatherlink.com 1.10,2013-02-09 23:29:00,
2013-02-09 19:44:00,77.6,70.0,30.00,East,93,10.0,13.0,78,0.00,,,0.00,0,weatherlink.com 1.10,2013-02-09 23:44:00,
2013-02-09 19:59:00,77.5,70.0,30.00,ENE,61,8.0,15.0,78,0.00,,,0.00,0,weatherlink.com 1.10,2013-02-09 23:59:00,
2013-02-09 20:14:00,77.6,70.0,30.01,ENE,74,5.0,13.0,78,0.00,,,0.00,0,weatherlink.com 1.10,2013-02-10 00:14:00,
2013-02-09 20:29:00,77.7,71.0,30.01,ENE,62,9.0,16.0,79,0.00,,,0.00,0,weatherlink.com 1.10,2013-02-10 00:29:00,
2013-02-09 20:44:00,77.6,71.0,30.01,East,98,15.0,15.0,79,0.00,,,0.00,0,weatherlink.com 1.10,2013-02-10 00:44:00,
2013-02-09 20:59:00,77.4,70.0,30.01,ENE,78,7.0,12.0,78,0.00,,,0.00,0,weatherlink.com 1.10,2013-02-10 00:59:00,
2013-02-09 21:14:00,77.5,71.0,30.02,NE,53,12.0,12.0,79,0.00,,,0.00,0,weatherlink.com 1.10,2013-02-10 01:14:00,
2013-02-09 21:29:00,77.5,71.0,30.02,ENE,78,7.0,15.0,79,0.00,,,0.00,0,weatherlink.com 1.10,2013-02-10 01:29:00,
2013-02-09 21:44:00,77.4,70.0,30.02,ENE,63,7.0,13.0,79,0.00,,,0.00,0,weatherlink.com 1.10,2013-02-10 01:44:00,
2013-02-09 21:59:00,77.4,71.0,30.02,NE,55,10.0,13.0,80,0.00,,,0.00,0,weatherlink.com 1.10,2013-02-10 01:59:00,
2013-02-09 22:14:00,77.2,70.0,30.03,NE,51,4.0,12.0,79,0.00,,,0.00,0,weatherlink.com 1.10,2013-02-10 02:14:00,
2013-02-09 22:29:00,77.1,70.0,30.03,NE,46,6.0,12.0,78,0.00,,,0.00,0,weatherlink.com 1.10,2013-02-10 02:29:00,
2013-02-09 22:44:00,77.2,70.0,30.03,East,83,6.0,14.0,78,0.00,,,0.00,0,weatherlink.com 1.10,2013-02-10 02:44:00,
2013-02-09 22:59:00,77.1,70.0,30.03,East,82,5.0,11.0,78,0.00,,,0.00,0,weatherlink.com 1.10,2013-02-10 02:59:00,
2013-02-09 23:14:00,77.0,70.0,30.03,ENE,57,7.0,11.0,78,0.00,,,0.00,0,weatherlink.com 1.10,2013-02-10 03:14:00,
2013-02-09 23:29:00,76.9,70.0,30.02,NE,37,10.0,11.0,78,0.00,,,0.00,0,weatherlink.com 1.10,2013-02-10 03:29:00,
2013-02-09 23:44:00,76.8,69.0,30.02,ENE,67,10.0,13.0,77,0.00,,,0.00,0,weatherlink.com 1.10,2013-02-10 03:44:00,
2013-02-09 23:59:00,76.8,70.0,30.02,ENE,74,5.0,12.0,79,0.00,,,0.00,0,weatherlink.com 1.10,2013-02-10 03:59:00,